This is the latest recevied weather packets stored in our database for station/object KC5TIL. If no packets are shown the sender has not sent any weather packets the latest 10 day(s).
| Time | Temp. | Humidity | Pressure | Rain* | Wind** | Luminosity | Snow |
|---|---|---|---|---|---|---|---|
| 1788545436 | 36.11° C | 47% | 1014.6 hPa | 0 mm | - | 652 W/m² | - |
| 1788545131 | 36.11° C | 47% | 1015 hPa | 0 mm | - | 650 W/m² | - |
| 1788544826 | 36.67° C | 46% | 1014.8 hPa | 0 mm | - | 658 W/m² | - |
| 1788544520 | 35.56° C | 48% | 1014.8 hPa | 0 mm | - | 671 W/m² | - |
| 1788544219 | 35.56° C | 46% | 1014.9 hPa | 0 mm | - | 693 W/m² | - |
| 1788543914 | 36.11° C | 49% | 1014.8 hPa | 0 mm | - | 692 W/m² | - |
| 1788543611 | 35.56° C | 47% | 1015.1 hPa | 0 mm | - | 707 W/m² | - |
| 1788543305 | 35.56° C | 49% | 1015.2 hPa | 0 mm | - | 700 W/m² | - |
| 1788543000 | 35° C | 49% | 1015.2 hPa | 0 mm | - | 718 W/m² | - |
| 1788542696 | 36.11° C | 49% | 1015.2 hPa | 0 mm | - | 723 W/m² | - |
| 1788542390 | 35.56° C | 49% | 1015.3 hPa | 0 mm | - | 762 W/m² | - |
| 1788542086 | 35° C | 49% | 1015.2 hPa | 0 mm | - | 764 W/m² | - |
| 1788541782 | 35.56° C | 49% | 1015.4 hPa | 0 mm | - | 756 W/m² | - |
| 1788541482 | 35.56° C | 48% | 1015.4 hPa | 0 mm | - | 793 W/m² | - |
| 1788541177 | 33.89° C | 51% | 1015.5 hPa | 0 mm | - | 815 W/m² | - |
| 1788540876 | 33.89° C | 51% | 1015.3 hPa | 0 mm | - | 858 W/m² | - |
| 1788540576 | 33.33° C | 54% | 1015.5 hPa | 0 mm | - | 546 W/m² | - |
| 1788540271 | 33.33° C | 54% | 1015.6 hPa | 0 mm | - | 268 W/m² | - |
| 1788539966 | 34.44° C | 51% | 1015.6 hPa | 0 mm | - | 636 W/m² | - |
| 1788539666 | 33.89° C | 52% | 1015.6 hPa | 0 mm | - | 803 W/m² | - |
| 1788539360 | 33.89° C | 51% | 1015.6 hPa | 0 mm | - | 779 W/m² | - |
| 1788539056 | 33.33° C | 54% | 1015.7 hPa | 0 mm | - | 735 W/m² | - |
| 1788538751 | 33.89° C | 52% | 1015.5 hPa | 0 mm | - | 706 W/m² | - |
| 1788538446 | 33.89° C | 54% | 1015.6 hPa | 0 mm | - | 701 W/m² | - |
| 1788538142 | 33.89° C | 54% | 1015.6 hPa | 0 mm | - | 698 W/m² | - |
* Rain latest hour (hover to see other rain measurements)
** Current wind speed in m/s (hover to see current wind gust speed)